Louisville, KY

5:36 PM EST on February 07, 2016 (GMT -0500)
Louisville International-Standiford

Weather History for KSDF - November, 2014

Change the Weather History Date:

Tuesday, November 4, 2014

  Actual Average Record
Temperature  
Mean Temperature 60 °F 53 °F  
Max Temperature 66 °F 63 °F 80 °F (2003)
Min Temperature 53 °F 43 °F 20 °F (1991)
Degree Days  
Heating Degree Days 5 12  
Month to date heating degree days 63 46  
Since 1 July heating degree days 264 288  
Cooling Degree Days 0 0  
Month to date cooling degree days 0 0  
Year to date cooling degree days 1625 1609  
Growing Degree Days 10 (Base 50)    
Moisture  
Dew Point 41 °F    
Average Humidity 61    
Maximum Humidity 93    
Minimum Humidity 28    
Precipitation  
Precipitation 0.03 in 0.11 in 1.47 in (1936)
Month to date precipitation 0.03 0.45  
Year to date precipitation 38.02 37.94  
Snow  
Snow 0.00 in 0.00 in 7.40 in (1936)
Month to date snowfall T 0.0  
Since 1 July snowfall T 0.1  
Since 1 September snowfall T 0.1  
Snow Depth 0.00 in    
Sea Level Pressure  
Sea Level Pressure 30.17 in    
Wind  
Wind Speed 12 mph (SW)    
Max Wind Speed 25 mph    
Max Gust Speed 31 mph    
Visibility 9 miles    
Events Rain    
T = Trace of Precipitation, MM = Missing Value Source: NWS Daily Summary

Daily Weather History Graph

Daily Weather History Graph

Search for Another Location

Airport or City:

Trip Planner

Search our weather history database for the weather conditions in past years. The results will help you decide how hot, cold, wet, or windy it might be!

Date:

Astronomy

Nov. 04, 2014 Rise Set
Actual Time 7:12 AM EST 5:40 PM EST
Civil Twilight 6:44 AM EST 6:07 PM EST
Nautical Twilight 6:13 AM EST 6:39 PM EST
Astronomical Twilight 5:42 AM EST 7:10 PM EST
Moon 4:24 PM EST (11/4) 4:31 AM EST (11/4)
Length of Visible Light 11h 23m
Length of Day
10h 28m
Waxing Gibbous, 94% of the Moon is Illuminated
Nov 4
Waxing Gibbous
Nov 6
Full
Nov 14
Last Quarter
Nov 22
New
Nov 29
First Quarter

Hourly Weather History & Observations

Time (EST) Temp. Dew Point Humidity Pressure Visibility Wind Dir Wind Speed Gust Speed Precip Events Conditions
12:56 AM 57.0 °F 26.1 °F 30% 30.22 in 10.0 mi SSW 9.2 mph - N/A   Overcast
1:56 AM 57.0 °F 27.0 °F 32% 30.22 in 10.0 mi SSW 9.2 mph - N/A   Overcast
2:56 AM 55.9 °F 28.0 °F 34% 30.21 in 10.0 mi South 10.4 mph - N/A   Overcast
3:56 AM 57.0 °F 28.9 °F 34% 30.19 in 10.0 mi South 11.5 mph - N/A   Overcast
4:56 AM 55.9 °F 28.9 °F 36% 30.19 in 10.0 mi South 10.4 mph - N/A   Overcast
5:56 AM 54.0 °F 28.9 °F 38% 30.19 in 10.0 mi South 10.4 mph - N/A   Overcast
6:56 AM 54.0 °F 30.0 °F 40% 30.19 in 10.0 mi South 11.5 mph - N/A   Overcast
7:56 AM 54.0 °F 30.9 °F 41% 30.20 in 10.0 mi South 8.1 mph - N/A   Overcast
8:56 AM 55.9 °F 33.1 °F 42% 30.20 in 10.0 mi South 10.4 mph - N/A   Mostly Cloudy
9:56 AM 59.0 °F 35.1 °F 41% 30.18 in 10.0 mi SSW 13.8 mph - N/A   Overcast
10:56 AM 63.0 °F 37.9 °F 40% 30.18 in 10.0 mi SSW 13.8 mph 20.7 mph N/A   Overcast
11:56 AM 64.0 °F 39.9 °F 41% 30.15 in 10.0 mi SSW 16.1 mph - N/A   Overcast
12:56 PM 66.0 °F 42.1 °F 42% 30.13 in 10.0 mi SSW 19.6 mph 27.6 mph N/A   Overcast
1:56 PM 64.9 °F 44.1 °F 47% 30.11 in 10.0 mi SW 16.1 mph 28.8 mph N/A   Overcast
2:56 PM 64.0 °F 46.0 °F 52% 30.11 in 10.0 mi SW 19.6 mph 26.5 mph 0.00 in   Overcast
3:56 PM 64.0 °F 46.0 °F 52% 30.12 in 10.0 mi SW 10.4 mph 23.0 mph 0.00 in   Overcast
4:56 PM 63.0 °F 46.9 °F 56% 30.11 in 10.0 mi SW 12.7 mph - N/A   Overcast
5:56 PM 61.0 °F 48.9 °F 64% 30.11 in 10.0 mi West 13.8 mph - N/A   Overcast
6:56 PM 57.0 °F 53.1 °F 87% 30.15 in 6.0 mi West 13.8 mph - 0.01 in Rain Light Rain
7:56 PM 57.0 °F 54.0 °F 89% 30.15 in 8.0 mi West 9.2 mph - 0.00 in   Overcast
8:56 PM 57.0 °F 54.0 °F 89% 30.15 in 9.0 mi West 6.9 mph - 0.01 in Rain Light Rain
9:56 PM 57.0 °F 54.0 °F 89% 30.17 in 8.0 mi SW 12.7 mph - 0.00 in Rain Light Rain
10:14 PM 57.0 °F 55.0 °F 93% 30.18 in 8.0 mi SW 10.4 mph - 0.00 in Rain Light Rain
10:31 PM 57.0 °F 54.0 °F 89% 30.18 in 6.0 mi Variable 6.9 mph - 0.00 in Rain Light Rain
10:56 PM 55.9 °F 54.0 °F 93% 30.17 in 8.0 mi West 4.6 mph - 0.01 in Rain Light Rain
11:16 PM 55.9 °F 54.0 °F 93% 30.17 in 7.0 mi SW 10.4 mph - 0.00 in   Overcast
11:56 PM 55.9 °F 54.0 °F 93% 30.17 in 9.0 mi Variable 5.8 mph - 0.00 in   Light Drizzle